Torrington, WY

8:39 AM MST on February 14, 2016 (GMT -0700)
Torrington Municipal

Weather History for KTOR - November, 2011

Change the Weather History Date:

Monday, November 7, 2011

  Actual Average Record
Temperature  
Mean Temperature 28 °F 40 °F  
Max Temperature 37 °F 54 °F 77 °F (2012)
Min Temperature 19 °F 26 °F 13 °F (2003)
Degree Days  
Heating Degree Days 37 25  
Month to date heating degree days 226 167  
Since 1 July heating degree days 820 877  
Cooling Degree Days 0 0  
Month to date cooling degree days 0 0  
Year to date cooling degree days 843 678  
Moisture  
Dew Point 25 °F    
Average Humidity 82    
Maximum Humidity 100    
Minimum Humidity 63    
Precipitation  
Precipitation T in 0.02 in 0.00 in (2016)
Month to date precipitation 0.12 0.15  
Year to date precipitation 16.32 13.55  
Sea Level Pressure  
Sea Level Pressure 30.12 in    
Wind  
Wind Speed 5 mph (ESE)    
Max Wind Speed 13 mph    
Max Gust Speed 16 mph    
Visibility 8 miles    
Events Fog , Snow    
T = Trace of Precipitation, MM = Missing Value Source: NWS Daily Summary

Daily Weather History Graph

Daily Weather History Graph

Search for Another Location

Airport or City:

Trip Planner

Search our weather history database for the weather conditions in past years. The results will help you decide how hot, cold, wet, or windy it might be!

Date:

Astronomy

Nov. 07, 2011 Rise Set
Actual Time 6:36 AM MST 4:43 PM MST
Civil Twilight 6:07 AM MST 5:12 PM MST
Nautical Twilight 5:33 AM MST 5:46 PM MST
Astronomical Twilight 5:00 AM MST 6:18 PM MST
Moon 2:57 PM MST (11/7) 3:39 AM MST (11/7)
Length of Visible Light 11h 05m
Length of Day
10h 07m
Waxing Gibbous, 92% of the Moon is Illuminated
Nov 7
Waxing Gibbous
Nov 10
Full
Nov 18
Last Quarter
Nov 24
New
Dec 2
First Quarter

Hourly Weather History & Observations

Time (MST) Temp. Windchill Dew Point Humidity Pressure Visibility Wind Dir Wind Speed Gust Speed Precip Events Conditions
1:53 AM 21.9 °F 13.4 °F 17.1 °F 82% 30.10 in 10.0 mi East 6.9 mph - N/A   Clear
2:53 AM 19.0 °F 11.1 °F 15.1 °F 85% 30.11 in 10.0 mi ENE 5.8 mph - N/A   Clear
3:53 AM 21.9 °F 14.5 °F 17.1 °F 82% 30.10 in 10.0 mi ENE 5.8 mph - N/A   Scattered Clouds
4:53 AM 24.1 °F 18.2 °F 19.0 °F 81% 30.11 in 10.0 mi NE 4.6 mph - N/A   Overcast
5:53 AM 24.1 °F 18.2 °F 19.9 °F 84% 30.14 in 10.0 mi SSE 4.6 mph - N/A   Overcast
6:53 AM 26.1 °F 21.9 °F 21.0 °F 81% 30.15 in 10.0 mi ENE 3.5 mph - N/A   Overcast
8:53 AM 32.0 °F 25.6 °F 21.9 °F 66% 30.18 in 10.0 mi SE 6.9 mph - N/A   Clear
10:30 AM 35.6 °F 30.7 °F 26.6 °F 70% 30.11 in 10.0 mi ESE 5.8 mph - N/A   Mostly Cloudy
10:53 AM 37.0 °F 31.0 °F 28.9 °F 73% 30.17 in 10.0 mi SE 8.1 mph - N/A   Overcast
11:53 AM 35.1 °F 28.6 °F 30.9 °F 85% 30.17 in 9.0 mi ESE 8.1 mph - N/A   Overcast
12:21 PM 35.6 °F 28.6 °F 32.0 °F 87% 30.06 in 7.0 mi East 9.2 mph - 0.00 in Snow Light Snow
12:53 PM 36.0 °F 29.0 °F 33.1 °F 89% 30.14 in 9.0 mi ESE 9.2 mph - 0.00 in   Overcast
1:53 PM 36.0 °F 28.0 °F 30.9 °F 82% 30.12 in 10.0 mi ESE 11.5 mph - N/A   Overcast
2:09 PM 37.4 °F 30.8 °F 32.0 °F 81% 30.03 in 10.0 mi SE 9.2 mph - N/A   Overcast
2:42 PM 35.6 °F 29.9 °F 30.2 °F 81% 30.04 in 10.0 mi SE 6.9 mph - N/A   Overcast
2:53 PM 35.1 °F 30.1 °F 30.9 °F 85% 30.14 in 10.0 mi SE 5.8 mph - N/A   Overcast
3:18 PM 33.8 °F 28.6 °F 32.0 °F 93% 30.05 in 9.0 mi East 5.8 mph - N/A   Overcast
3:53 PM 34.0 °F - 32.0 °F 92% 30.14 in 10.0 mi Calm Calm - N/A   Mostly Cloudy
4:10 PM 33.8 °F - 32.0 °F 93% 30.04 in 10.0 mi Calm Calm - N/A   Scattered Clouds
4:53 PM 32.0 °F - 30.0 °F 92% 30.14 in 10.0 mi Calm Calm - N/A   Scattered Clouds
5:53 PM 30.0 °F 25.2 °F 28.9 °F 96% 30.17 in 9.0 mi North 4.6 mph - N/A   Scattered Clouds
7:53 PM 28.0 °F - 26.1 °F 92% 30.17 in 10.0 mi Calm Calm - N/A   Mostly Cloudy
8:53 PM 27.0 °F - 26.1 °F 96% 30.17 in 9.0 mi Calm Calm - N/A   Mostly Cloudy
9:08 PM 26.6 °F 21.2 °F 24.8 °F 93% 30.08 in 7.0 mi West 4.6 mph - N/A   Mostly Cloudy
9:53 PM 23.0 °F 17.0 °F 21.9 °F 96% 30.17 in 8.0 mi WNW 4.6 mph - N/A   Clear
10:53 PM 21.0 °F 13.4 °F 19.0 °F 92% 30.15 in 2.0 mi West 5.8 mph - N/A   Scattered Clouds
11:00 PM 19.4 °F 14.3 °F 19.4 °F 100% 30.06 in 1.0 mi West 3.5 mph - N/A   Mist
11:11 PM 21.2 °F 13.6 °F 19.4 °F 93% 30.06 in 0.5 mi WNW 5.8 mph - N/A Fog Light Freezing Fog
11:53 PM 21.0 °F 16.2 °F 19.9 °F 96% 30.15 in 0.2 mi WNW 3.5 mph - N/A Fog Light Freezing Fog